User: anonymous
Location: Sewell
(39.7660°N, 75.1450°W)
Time: 17:38:53
(UTC-04:00)
Language:

ISS - Orbit

View from above orbital plane
View from above orbital plane
View from above satellite
View from above satellite

Ground track
Ground track

The orbit data is extracted from the following two-line orbital elements,

1 25544U 98067A   14212.58968681  .00003998  00000-0  76703-4 0  8086
2 25544 051.6469 239.4933 0006299 314.8135 187.2721 15.50489570898217
Epoch (UTC): 31 July 2014 14:09:08
Eccentricity: 0.0006299
inclination: 51.6469°
perigee height: 411 km
apogee height: 419 km
right ascension of ascending node: 239.4933°
argument of perigee: 314.8135°
revolutions per day: 15.50489570
mean anomaly at epoch: 187.2721°
orbit number at epoch: 89821

The dashed part of the orbit path shows where the satellite is in the earth's shadow,  

DLR